Waarnemingen

Advertentie
Mijn weer
Dieppe, Frankrijk (7040): temperatuur & dauwpunt: 26.05.2020 04:00:00 - 01.06.2020 04:00:00 (CEST)Dieppe, Frankrijk (7040): temperatuur 5cm: 26.05.2020 04:00:00 - 01.06.2020 04:00:00 (CEST)Dieppe, Frankrijk (7040): windsnelheid & windstoten: 26.05.2020 04:00:00 - 01.06.2020 04:00:00 (CEST)Dieppe, Frankrijk (7040): windrichting: 26.05.2020 04:00:00 - 01.06.2020 04:00:00 (CEST)Dieppe, Frankrijk (7040): luchtdruk: 26.05.2020 04:00:00 - 01.06.2020 04:00:00 (CEST)Dieppe, Frankrijk (7040): zicht: 26.05.2020 04:00:00 - 01.06.2020 04:00:00 (CEST)Dieppe, Frankrijk (7040): neerslag: 26.05.2020 04:00:00 - 01.06.2020 04:00:00 (CEST)
Datum & Tijd tt [°C] td [°C] tt 5cm [°C] ff [km/u] ff [kn] fx [km/u] fx [kn] dd ppp [hPa] vv [km] rr [mm]
01.06.2020 04:00:00 - - - - - - - - - - -
01.06.2020 03:00:00 13,2 8,3 11,7 9 5 20 11 ONO 1020,3 - 0,0
01.06.2020 02:00:00 14,2 8,6 13,3 9 5 19 10 O 1020,5 18 0,0
01.06.2020 01:00:00 15,2 8,7 14,1 10 6 23 13 O 1020,3 - 0,0
01.06.2020 00:00:00 16,0 13,1 15,1 16 9 27 14 NO 1020,3 - 0,0
31.05.2020 23:00:00 16,3 13,2 15,5 20 11 37 20 NO 1020,2 15 0,0
31.05.2020 22:00:00 16,8 12,1 16,2 25 13 41 22 NO 1019,7 - 0,0
31.05.2020 21:00:00 17,1 11,4 16,9 24 13 39 21 ONO 1019,6 - 0,0
31.05.2020 20:00:00 17,4 12,1 17,6 20 11 40 21 NO 1019,2 - 0,0
31.05.2020 19:00:00 18,0 12,4 19,5 19 10 31 17 NO 1019,3 - 0,0
31.05.2020 18:00:00 18,3 12,3 20,3 18 10 36 19 NO 1019,5 - 0,0
31.05.2020 17:00:00 19,1 12,4 21,9 15 8 33 18 NO 1019,7 20 0,0
31.05.2020 16:00:00 18,3 12,3 23,3 22 12 39 21 N 1019,9 - 0,0
31.05.2020 15:00:00 18,6 11,9 24,1 22 12 44 24 N 1020,3 - 0,0
31.05.2020 14:00:00 20,9 11,8 25,1 10 6 39 21 NO 1020,5 - 0,0
31.05.2020 13:00:00 22,5 5,4 24,1 21 11 36 19 ONO 1020,7 - 0,0
31.05.2020 12:00:00 22,4 5,8 24,2 16 9 35 19 O 1020,8 - 0,0
31.05.2020 11:00:00 20,2 9,1 25,4 10 5 25 14 NO 1020,6 20 0,0
31.05.2020 10:00:00 19,8 7,2 21,3 6 4 24 13 ZO 1020,3 - 0,0
31.05.2020 09:00:00 18,4 7,2 19,3 13 7 29 16 ZO 1020,4 - 0,0
31.05.2020 08:00:00 16,1 7,3 12,3 16 9 29 16 ZO 1020,3 20 0,0
31.05.2020 07:00:00 11,4 7,1 9,9 11 6 18 10 ZZO 1019,8 - 0,0
31.05.2020 06:00:00 10,5 7,2 9,7 10 5 26 14 ZZO 1019,4 - 0,0
31.05.2020 05:00:00 11,4 7,5 10,3 5 3 17 9 Z 1019,5 14 0,0
31.05.2020 04:00:00 12,0 8,5 10,3 3 2 8 4 OZO 1019,5 - 0,0
31.05.2020 03:00:00 12,6 8,7 10,7 0 0 7 4 N 1019,7 - 0,0
31.05.2020 02:00:00 14,3 9,1 12,5 0 0 16 9 N 1019,8 - 0,0
31.05.2020 01:00:00 15,7 8,7 13,4 11 6 20 11 ONO 1019,9 - 0,0
31.05.2020 00:00:00 15,5 10,3 13,1 8 4 15 8 ONO 1019,9 - 0,0
30.05.2020 23:00:00 15,5 13,0 10,4 9 5 17 9 N 1019,7 20 0,0
30.05.2020 22:00:00 15,9 12,1 14,5 3 2 9 5 NW 1019,3 - 0,0
30.05.2020 21:00:00 16,8 12,7 16,2 7 4 22 12 NO 1019,2 - 0,0
30.05.2020 20:00:00 17,7 12,4 17,8 15 8 41 22 NO 1019,3 14 0,0
30.05.2020 19:00:00 18,9 11,5 20,1 15 8 37 20 NO 1019,4 - 0,0
30.05.2020 18:00:00 18,5 12,9 20,1 17 9 32 18 NO 1019,9 - 0,0
30.05.2020 17:00:00 18,6 12,8 20,5 22 12 34 18 NO 1020,2 - 0,0
30.05.2020 16:00:00 18,3 12,5 23,0 21 11 33 18 NO 1020,4 - 0,0
30.05.2020 15:00:00 18,6 12,8 23,2 14 7 27 15 NO 1020,6 - 0,0
30.05.2020 14:00:00 18,7 12,2 22,7 13 7 28 15 NO 1021,1 14 0,0
30.05.2020 13:00:00 18,9 12,9 22,3 15 8 23 13 NO 1021,4 - 0,0
30.05.2020 12:00:00 18,3 12,7 22,7 10 5 18 10 NO 1021,7 - 0,0
30.05.2020 11:00:00 17,6 10,9 23,5 8 4 15 8 NO 1022,0 - 0,0
30.05.2020 10:00:00 16,2 10,5 21,5 5 3 14 8 NNO 1022,0 - 0,0
30.05.2020 09:00:00 15,4 8,6 18,0 5 3 9 5 NO 1021,9 - 0,0
30.05.2020 08:00:00 14,1 7,6 12,9 5 3 12 6 ONO 1022,0 20 0,0
30.05.2020 07:00:00 12,3 7,6 9,5 8 5 11 6 ONO 1022,0 - 0,0
30.05.2020 06:00:00 11,6 7,3 8,9 8 4 13 7 ONO 1022,1 - 0,0
30.05.2020 05:00:00 12,0 7,3 9,6 9 5 14 8 ONO 1022,2 20 0,0
30.05.2020 04:00:00 12,6 7,3 10,8 10 5 16 8 ONO 1022,5 - 0,0
30.05.2020 03:00:00 12,6 6,6 11,0 11 6 16 8 ONO 1022,8 - 0,0
30.05.2020 02:00:00 13,2 6,8 11,9 11 6 18 10 O 1023,0 12 0,0
30.05.2020 01:00:00 14,2 7,0 12,4 10 5 20 11 ONO 1023,2 - 0,0
30.05.2020 00:00:00 14,8 7,3 13,7 13 7 23 12 ONO 1023,1 - 0,0
29.05.2020 23:00:00 15,7 12,1 14,8 13 7 29 16 ONO 1023,1 - 0,0
29.05.2020 22:00:00 16,1 12,5 15,4 21 11 37 20 NO 1022,8 - 0,0
29.05.2020 21:00:00 16,2 12,0 15,9 21 11 34 18 NO 1022,7 - 0,0
29.05.2020 20:00:00 16,7 11,8 16,9 21 11 34 18 NO 1022,7 - 0,0
29.05.2020 19:00:00 17,0 12,1 18,5 16 9 31 17 NO 1023,1 - 0,0
29.05.2020 18:00:00 16,7 12,4 18,3 21 11 37 20 NO 1023,7 - 0,0
29.05.2020 17:00:00 17,0 12,3 19,1 23 12 35 19 NO 1024,1 - 0,0
29.05.2020 16:00:00 17,0 12,5 22,2 19 10 31 17 NO 1024,9 - 0,0
29.05.2020 15:00:00 17,1 12,2 21,4 17 9 41 22 NNO 1025,2 - 0,0
29.05.2020 14:00:00 17,6 11,2 20,9 14 8 33 18 NNO 1025,8 20 0,0
29.05.2020 13:00:00 18,3 11,6 21,5 14 8 31 17 NO 1026,3 - 0,0
29.05.2020 12:00:00 21,7 4,3 24,0 10 6 32 17 O 1026,5 - 0,0
29.05.2020 11:00:00 20,1 6,1 21,6 9 5 27 14 OZO 1027,0 15 0,0
29.05.2020 10:00:00 18,0 5,9 19,5 14 8 26 14 O 1027,1 - 0,0
29.05.2020 09:00:00 15,9 7,4 17,7 2 1 18 10 N 1027,4 - 0,0
29.05.2020 08:00:00 13,6 7,6 13,4 0 0 10 5 N 1027,3 15 0,0
29.05.2020 07:00:00 11,9 7,4 9,5 0 0 13 7 N 1027,5 - 0,0
29.05.2020 06:00:00 11,3 7,4 8,8 8 4 18 10 ONO 1027,6 - 0,0
29.05.2020 05:00:00 11,5 8,0 9,8 6 3 20 11 O 1027,8 - 0,0
29.05.2020 04:00:00 11,7 8,2 10,5 8 4 21 12 O 1028,0 - 0,0
29.05.2020 03:00:00 12,2 8,5 10,8 11 6 21 12 ONO 1028,3 - 0,0
29.05.2020 02:00:00 12,7 8,2 10,7 8 4 27 15 O 1028,4 15 0,0
29.05.2020 01:00:00 13,6 8,8 12,6 16 9 26 14 ONO 1028,7 - 0,0
29.05.2020 00:00:00 14,5 9,5 13,6 16 8 35 19 ONO 1028,8 - 0,0
28.05.2020 23:00:00 15,7 11,9 15,1 25 14 38 21 NO 1028,8 15 0,0
28.05.2020 22:00:00 15,9 12,8 14,9 18 10 33 18 NO 1028,6 - 0,0
28.05.2020 21:00:00 15,6 12,7 15,2 19 10 40 22 NO 1028,5 - 0,0
28.05.2020 20:00:00 16,1 12,6 16,3 19 10 36 20 NO 1028,6 - 0,0
28.05.2020 19:00:00 16,5 12,3 17,9 20 11 38 21 NO 1029,1 - 0,0
28.05.2020 18:00:00 16,6 12,5 18,2 19 10 38 21 NO 1029,3 - 0,0
28.05.2020 17:00:00 17,1 12,6 19,1 15 8 39 21 NNO 1029,7 20 0,0
28.05.2020 16:00:00 16,9 11,6 21,8 20 11 39 21 NNO 1030,3 - 0,0
28.05.2020 15:00:00 17,1 10,0 20,4 21 11 38 21 N 1030,8 - 0,0
28.05.2020 14:00:00 16,2 10,9 18,3 20 11 40 22 NNO 1031,3 - 0,0
28.05.2020 13:00:00 15,6 10,1 18,1 17 9 38 20 NNO 1032,2 - 0,0
28.05.2020 12:00:00 15,6 10,1 18,7 18 10 36 19 NNO 1032,7 - 0,0
28.05.2020 11:00:00 15,3 10,1 19,9 16 9 31 17 NNO 1033,1 20 0,0
28.05.2020 10:00:00 14,6 10,8 16,0 13 7 25 14 NO 1033,3 - 0,0
28.05.2020 09:00:00 13,3 10,5 12,5 11 6 21 12 NO 1033,7 - 0,0
28.05.2020 08:00:00 11,9 10,3 11,3 12 7 26 14 ONO 1033,8 - 0,0
28.05.2020 07:00:00 11,3 9,7 10,6 16 9 27 14 ONO 1033,7 - 0,0
28.05.2020 06:00:00 11,3 9,0 10,6 15 8 44 24 ONO 1033,7 - 0,0
28.05.2020 05:00:00 12,8 9,4 12,2 24 13 38 20 NO 1033,6 20 0,0
28.05.2020 04:00:00 13,3 8,6 12,5 18 10 38 20 NO 1033,7 - 0,0
28.05.2020 03:00:00 13,9 9,1 12,2 11 6 21 11 NO 1034,1 - 0,0
28.05.2020 02:00:00 14,0 8,4 12,6 8 4 19 10 ONO 1034,1 20 0,0
28.05.2020 01:00:00 14,7 8,9 13,5 10 5 18 10 ONO 1034,2 - 0,0
28.05.2020 00:00:00 15,8 8,8 14,6 14 7 23 13 ONO 1034,2 - 0,0
27.05.2020 23:00:00 16,0 9,6 14,5 9 5 18 10 ONO 1034,1 - 0,0
27.05.2020 22:00:00 16,4 12,6 15,5 12 7 23 12 ONO 1033,7 - 0,0
27.05.2020 21:00:00 16,7 12,8 16,2 15 8 35 19 ONO 1033,3 - 0,0
27.05.2020 20:00:00 16,9 12,2 17,0 19 10 37 20 ONO 1033,6 14 0,0
27.05.2020 19:00:00 17,8 12,5 19,5 16 9 32 17 NO 1033,6 - 0,0
27.05.2020 18:00:00 18,0 12,0 19,9 10 5 19 11 NO 1033,8 - 0,0
27.05.2020 17:00:00 17,1 11,8 19,9 11 6 21 11 N 1034,1 - 0,0
27.05.2020 16:00:00 16,5 12,5 22,2 8 5 21 11 NNO 1034,4 - 0,0
27.05.2020 15:00:00 17,0 12,1 22,5 10 5 22 12 NO 1034,9 - 0,0
27.05.2020 14:00:00 16,3 11,7 20,7 11 6 23 12 NNO 1035,1 - 0,0
27.05.2020 13:00:00 16,7 11,2 20,4 7 4 16 8 NO 1035,0 - 0,0
27.05.2020 12:00:00 17,1 11,8 22,1 7 4 19 10 N 1035,3 - 0,0
27.05.2020 11:00:00 16,4 11,5 21,0 10 5 20 11 NNO 1035,3 - 0,0
27.05.2020 10:00:00 15,7 10,7 20,8 7 4 15 8 NNO 1035,4 - 0,0
27.05.2020 09:00:00 15,6 10,1 15,8 5 3 9 5 NNO 1035,4 - 0,0
27.05.2020 08:00:00 12,0 8,7 11,5 4 2 9 5 Z 1035,0 - 0,0
27.05.2020 07:00:00 10,7 8,5 9,8 5 3 9 5 OZO 1034,9 - 0,0
27.05.2020 06:00:00 10,3 8,4 9,7 5 3 10 5 ZZO 1034,8 - 0,0
27.05.2020 05:00:00 10,7 8,5 10,0 5 3 9 5 ZZO 1034,6 - 0,0
27.05.2020 04:00:00 11,2 8,8 10,4 5 3 8 5 ZZO 1034,7 - 0,0
27.05.2020 03:00:00 11,9 9,1 11,0 5 3 7 4 ZZO 1034,8 - 0,0
27.05.2020 02:00:00 12,7 9,3 9,0 4 2 8 4 Z 1035,0 12 0,0
27.05.2020 01:00:00 13,4 9,6 9,1 0 0 0 0 N 1035,2 - 0,0
27.05.2020 00:00:00 14,1 9,9 11,3 0 0 6 3 N 1035,1 - 0,0
26.05.2020 23:00:00 14,8 10,2 12,7 4 2 8 5 N 1035,3 11 0,0
26.05.2020 22:00:00 15,3 10,3 13,4 5 3 9 5 NO 1035,0 - 0,0
26.05.2020 21:00:00 16,3 10,2 15,9 5 3 11 6 N 1035,0 - 0,0
26.05.2020 20:00:00 17,2 10,3 17,8 3 2 12 7 NNO 1034,9 11 0,0
26.05.2020 19:00:00 17,3 10,9 20,0 6 3 16 9 NNO 1035,1 - 0,0
26.05.2020 18:00:00 17,7 11,0 20,5 5 3 13 7 NNO 1035,2 - 0,0
26.05.2020 17:00:00 18,8 12,1 21,3 7 4 13 7 N 1035,5 - 0,0
26.05.2020 16:00:00 18,8 13,4 25,3 8 4 14 7 N 1035,8 - 0,0
26.05.2020 15:00:00 19,1 13,7 24,2 6 3 14 7 N 1036,0 - 0,0
26.05.2020 14:00:00 18,9 14,0 21,8 7 4 13 7 NNW 1036,2 - 0,0
26.05.2020 13:00:00 18,2 13,5 20,8 7 4 12 7 N 1036,4 - 0,0
26.05.2020 12:00:00 17,2 11,7 22,5 5 3 11 6 NO 1036,4 - 0,0
26.05.2020 11:00:00 18,2 11,3 24,0 4 2 9 5 N 1036,2 11 0,0
26.05.2020 10:00:00 17,0 10,8 19,5 3 2 9 5 NNO 1036,2 - 0,0
26.05.2020 09:00:00 14,1 10,1 14,0 5 3 16 8 Z 1035,8 - 0,0
26.05.2020 08:00:00 10,9 8,6 9,9 8 5 13 7 Z 1035,8 - 0,0
26.05.2020 07:00:00 9,2 7,6 8,7 8 5 12 6 Z 1035,8 - 0,0
26.05.2020 06:00:00 9,4 7,8 8,6 7 4 10 6 Z 1035,5 - 0,0
26.05.2020 05:00:00 10,1 8,2 9,1 5 3 9 5 Z 1035,3 15 0,0
26.05.2020 04:00:00 10,9 8,6 9,7 4 2 9 5 Z 1035,1 - 0,0

tt = temperatuur
td = dauwpunt
tt 5cm = temperatuur 5cm
ff = windsnelheid
fx = windstoten
dd = windrichting
ppp = luchtdruk
vv = zicht
rr = neerslag

Weerstations in de omgeving